Time,TemperatureF,DewpointF,PressureIn,WindDirection,WindDirectionDegrees,WindSpeedMPH,WindSpeedGustMPH,Humidity,HourlyPrecipIn,Conditions,Clouds,dailyrainin,SoftwareType,DateUTC
2013-06-11 00:03:00,58.0,58.0,-100.00,East,90,0.0,2.0,97,0.14,,,-99.99,,2013-06-11 04:03:00,
2013-06-11 00:12:00,58.0,58.0,-100.00,East,80,1.0,1.0,97,0.03,,,-99.99,,2013-06-11 04:12:00,
2013-06-11 00:23:00,58.0,58.0,-100.00,ESE,110,0.0,3.0,97,0.01,,,-99.99,,2013-06-11 04:23:00,
2013-06-11 00:33:00,58.0,58.0,-100.00,East,80,1.0,2.0,97,0.07,,,-99.99,,2013-06-11 04:33:00,
2013-06-11 00:42:00,58.0,58.0,-100.00,North,-999,-999.0,-999.0,97,-99.99,,,-99.99,,2013-06-11 04:42:00,
2013-06-11 00:52:00,58.0,58.0,-100.00,NE,45,1.0,2.0,97,0.03,,,-99.99,,2013-06-11 04:52:00,
2013-06-11 01:02:00,58.0,58.0,-100.00,NE,50,1.0,2.0,98,0.01,,,-99.99,,2013-06-11 05:02:00,
2013-06-11 01:12:00,58.0,58.0,-100.00,North,350,1.0,1.0,98,0.03,,,-99.99,,2013-06-11 05:12:00,
2013-06-11 01:22:00,58.0,58.0,-100.00,East,100,0.0,2.0,98,0.04,,,-99.99,,2013-06-11 05:22:00,
2013-06-11 01:32:00,58.0,58.0,-100.00,North,350,0.0,1.0,98,0.03,,,-99.99,,2013-06-11 05:32:00,
2013-06-11 01:42:00,58.0,58.0,-100.00,NNE,15,0.0,2.0,98,0.01,,,-99.99,,2013-06-11 05:42:00,
2013-06-11 01:52:00,58.0,58.0,-100.00,East,80,0.0,2.0,98,0.04,,,-99.99,,2013-06-11 05:52:00,
2013-06-11 02:02:00,58.0,58.0,-100.00,NE,55,0.0,2.0,98,0.16,,,-99.99,,2013-06-11 06:02:00,
2013-06-11 02:12:00,58.0,57.0,-100.00,East,90,1.0,3.0,98,0.01,,,-99.99,,2013-06-11 06:12:00,
2013-06-11 02:22:00,58.0,57.0,-100.00,South,185,1.0,3.0,98,0.00,,,-99.99,,2013-06-11 06:22:00,
2013-06-11 02:32:00,58.0,58.0,-100.00,North,350,0.0,2.0,98,0.00,,,-99.99,,2013-06-11 06:32:00,
2013-06-11 02:42:00,58.0,58.0,-100.00,North,0,1.0,2.0,98,0.00,,,-99.99,,2013-06-11 06:42:00,
2013-06-11 02:52:00,58.0,58.0,-100.00,ESE,105,1.0,2.0,98,0.01,,,-99.99,,2013-06-11 06:52:00,
2013-06-11 03:02:00,58.0,57.0,-100.00,ENE,65,1.0,3.0,98,0.23,,,-99.99,,2013-06-11 07:02:00,
2013-06-11 03:13:00,58.0,57.0,-100.00,East,80,1.0,3.0,98,0.50,,,-99.99,,2013-06-11 07:13:00,
2013-06-11 03:22:00,58.0,57.0,-100.00,North,10,1.0,2.0,98,0.33,,,-99.99,,2013-06-11 07:22:00,
2013-06-11 03:32:00,57.0,57.0,-100.00,NE,55,1.0,4.0,98,0.18,,,-99.99,,2013-06-11 07:32:00,
2013-06-11 03:42:00,57.0,57.0,-100.00,East,95,1.0,2.0,98,0.08,,,-99.99,,2013-06-11 07:42:00,
2013-06-11 03:52:00,57.0,56.0,-100.00,North,10,2.0,6.0,98,0.06,,,-99.99,,2013-06-11 07:52:00,
2013-06-11 04:02:00,56.0,56.0,-100.00,North,-999,-999.0,-999.0,98,0.03,,,-99.99,,2013-06-11 08:02:00,
2013-06-11 04:12:00,56.0,55.0,-100.00,East,90,1.0,4.0,98,0.01,,,-99.99,,2013-06-11 08:12:00,
2013-06-11 04:22:00,56.0,55.0,-100.00,North,-999,-999.0,-999.0,98,-99.99,,,-99.99,,2013-06-11 08:22:00,
2013-06-11 04:32:00,55.0,55.0,-100.00,North,0,1.0,3.0,98,0.20,,,-99.99,,2013-06-11 08:32:00,
2013-06-11 04:52:00,55.0,55.0,-100.00,NNE,25,1.0,3.0,97,0.10,,,-99.99,,2013-06-11 08:52:00,
2013-06-11 05:02:00,55.0,55.0,-100.00,North,-999,-999.0,-999.0,97,0.10,,,-99.99,,2013-06-11 09:02:00,
2013-06-11 05:12:00,55.0,55.0,-100.00,West,280,0.0,2.0,98,0.14,,,-99.99,,2013-06-11 09:12:00,
2013-06-11 05:22:00,55.0,55.0,-100.00,East,80,1.0,2.0,98,0.10,,,-99.99,,2013-06-11 09:22:00,
2013-06-11 05:33:00,55.0,54.0,-100.00,West,275,1.0,2.0,98,0.27,,,-99.99,,2013-06-11 09:33:00,
2013-06-11 05:43:00,55.0,54.0,-100.00,East,80,1.0,2.0,98,0.04,,,-99.99,,2013-06-11 09:43:00,
2013-06-11 05:53:00,55.0,55.0,-100.00,East,90,1.0,4.0,98,0.25,,,-99.99,,2013-06-11 09:53:00,
2013-06-11 06:03:00,55.0,55.0,-100.00,ENE,60,0.0,2.0,98,0.14,,,-99.99,,2013-06-11 10:03:00,
2013-06-11 06:12:00,55.0,55.0,-100.00,ESE,110,1.0,3.0,98,0.06,,,-99.99,,2013-06-11 10:12:00,
2013-06-11 06:23:00,55.0,55.0,-100.00,East,80,1.0,2.0,98,0.18,,,-99.99,,2013-06-11 10:23:00,
2013-06-11 06:33:00,56.0,55.0,-100.00,West,280,1.0,2.0,98,0.04,,,-99.99,,2013-06-11 10:33:00,
2013-06-11 06:42:00,56.0,55.0,-100.00,NW,315,1.0,3.0,98,0.04,,,-99.99,,2013-06-11 10:42:00,
2013-06-11 06:52:00,56.0,55.0,-100.00,West,260,1.0,2.0,98,0.03,,,-99.99,,2013-06-11 10:52:00,
2013-06-11 07:02:00,56.0,55.0,-100.00,South,180,0.0,3.0,98,0.06,,,-99.99,,2013-06-11 11:02:00,
2013-06-11 07:12:00,56.0,55.0,-100.00,NW,315,1.0,2.0,98,0.07,,,-99.99,,2013-06-11 11:12:00,
2013-06-11 07:22:00,56.0,55.0,-100.00,West,275,1.0,2.0,98,0.01,,,-99.99,,2013-06-11 11:22:00,
2013-06-11 07:32:00,56.0,56.0,-100.00,North,0,1.0,2.0,98,0.00,,,-99.99,,2013-06-11 11:32:00,
2013-06-11 07:42:00,56.0,55.0,-100.00,South,185,1.0,2.0,98,0.00,,,-99.99,,2013-06-11 11:42:00,
2013-06-11 07:52:00,56.0,55.0,-100.00,ENE,60,2.0,3.0,98,0.00,,,-99.99,,2013-06-11 11:52:00,
2013-06-11 08:02:00,56.0,56.0,-100.00,North,350,0.0,3.0,98,0.00,,,-99.99,,2013-06-11 12:02:00,
2013-06-11 08:12:00,56.0,56.0,-100.00,SSE,155,1.0,3.0,98,0.00,,,-99.99,,2013-06-11 12:12:00,
2013-06-11 08:22:00,56.0,56.0,-100.00,North,350,1.0,1.0,98,0.01,,,-99.99,,2013-06-11 12:22:00,
2013-06-11 08:32:00,56.0,56.0,-100.00,NNE,15,0.0,3.0,98,0.01,,,-99.99,,2013-06-11 12:32:00,
2013-06-11 08:42:00,56.0,56.0,-100.00,East,80,1.0,2.0,98,0.01,,,-99.99,,2013-06-11 12:42:00,
2013-06-11 08:52:00,56.0,56.0,-100.00,North,-999,-999.0,-999.0,98,-99.99,,,-99.99,,2013-06-11 12:52:00,
2013-06-11 09:02:00,56.0,56.0,-100.00,North,0,1.0,4.0,98,0.01,,,-99.99,,2013-06-11 13:02:00,
2013-06-11 09:12:00,57.0,56.0,-100.00,WNW,300,1.0,2.0,98,0.00,,,-99.99,,2013-06-11 13:12:00,
2013-06-11 09:22:00,57.0,56.0,-100.00,North,-999,-999.0,-999.0,98,0.01,,,-99.99,,2013-06-11 13:22:00,
2013-06-11 09:32:00,57.0,57.0,-100.00,North,10,2.0,4.0,98,0.01,,,-99.99,,2013-06-11 13:32:00,
2013-06-11 09:42:00,57.0,57.0,-100.00,North,-999,-999.0,-999.0,98,-99.99,,,-99.99,,2013-06-11 13:42:00,
2013-06-11 09:52:00,57.0,57.0,-100.00,SW,225,1.0,4.0,98,0.01,,,-99.99,,2013-06-11 13:52:00,
2013-06-11 10:02:00,57.0,57.0,-100.00,South,175,1.0,2.0,98,0.04,,,-99.99,,2013-06-11 14:02:00,
2013-06-11 10:12:00,58.0,57.0,-100.00,North,10,0.0,1.0,98,0.06,,,-99.99,,2013-06-11 14:12:00,
2013-06-11 10:22:00,58.0,57.0,-100.00,ENE,65,1.0,5.0,98,0.07,,,-99.99,,2013-06-11 14:22:00,
2013-06-11 10:32:00,58.0,57.0,-100.00,North,0,1.0,7.0,98,0.00,,,-99.99,,2013-06-11 14:32:00,
2013-06-11 10:42:00,58.0,58.0,-100.00,ENE,60,1.0,4.0,98,0.00,,,-99.99,,2013-06-11 14:42:00,
2013-06-11 10:52:00,58.0,58.0,-100.00,WNW,285,1.0,4.0,97,0.00,,,-99.99,,2013-06-11 14:52:00,
2013-06-11 11:02:00,58.0,57.0,-100.00,West,265,1.0,8.0,97,0.00,,,-99.99,,2013-06-11 15:02:00,
2013-06-11 11:12:00,58.0,58.0,-100.00,NNE,15,1.0,4.0,97,0.00,,,-99.99,,2013-06-11 15:12:00,
2013-06-11 11:22:00,58.0,57.0,-100.00,NE,45,1.0,2.0,96,0.00,,,-99.99,,2013-06-11 15:22:00,
2013-06-11 11:33:00,59.0,58.0,-100.00,SSE,150,1.0,3.0,96,0.00,,,-99.99,,2013-06-11 15:33:00,
2013-06-11 11:42:00,59.0,58.0,-100.00,NNW,345,1.0,3.0,96,0.00,,,-99.99,,2013-06-11 15:42:00,
2013-06-11 11:53:00,59.0,58.0,-100.00,East,90,1.0,6.0,96,0.00,,,-99.99,,2013-06-11 15:53:00,
2013-06-11 12:03:00,59.0,58.0,-100.00,NE,55,1.0,4.0,95,0.00,,,-99.99,,2013-06-11 16:03:00,
2013-06-11 12:12:00,58.0,57.0,-100.00,WSW,255,2.0,4.0,94,0.00,,,-99.99,,2013-06-11 16:12:00,
2013-06-11 12:22:00,58.0,57.0,-100.00,WSW,255,2.0,4.0,94,0.00,,,-99.99,,2013-06-11 16:22:00,
2013-06-11 12:33:00,59.0,58.0,-100.00,North,350,1.0,4.0,94,0.00,,,-99.99,,2013-06-11 16:33:00,
2013-06-11 12:42:00,59.0,57.0,-100.00,NE,45,1.0,4.0,94,0.00,,,-99.99,,2013-06-11 16:42:00,
2013-06-11 12:52:00,59.0,57.0,-100.00,North,5,1.0,6.0,93,0.00,,,-99.99,,2013-06-11 16:52:00,
2013-06-11 13:02:00,60.0,58.0,-100.00,East,80,1.0,3.0,93,0.00,,,-99.99,,2013-06-11 17:02:00,
2013-06-11 13:12:00,60.0,57.0,-100.00,NE,45,1.0,3.0,91,0.00,,,-99.99,,2013-06-11 17:12:00,
2013-06-11 13:22:00,60.0,57.0,-100.00,NE,45,1.0,6.0,90,0.00,,,-99.99,,2013-06-11 17:22:00,
2013-06-11 13:32:00,60.0,56.0,-100.00,West,260,1.0,4.0,88,0.00,,,-99.99,,2013-06-11 17:32:00,
2013-06-11 13:43:00,60.0,57.0,-100.00,NE,55,1.0,3.0,89,0.00,,,-99.99,,2013-06-11 17:43:00,
2013-06-11 13:52:00,60.0,57.0,-100.00,NNW,340,1.0,4.0,88,0.00,,,-99.99,,2013-06-11 17:52:00,
2013-06-11 14:02:00,61.0,57.0,-100.00,North,10,1.0,2.0,88,0.00,,,-99.99,,2013-06-11 18:02:00,
2013-06-11 14:12:00,60.0,56.0,-100.00,NW,315,1.0,6.0,87,0.00,,,-99.99,,2013-06-11 18:12:00,
2013-06-11 14:22:00,60.0,57.0,-100.00,West,270,1.0,6.0,87,0.00,,,-99.99,,2013-06-11 18:22:00,
2013-06-11 14:33:00,61.0,57.0,-100.00,North,0,1.0,2.0,87,0.00,,,-99.99,,2013-06-11 18:33:00,
2013-06-11 14:42:00,62.0,57.0,-100.00,East,90,0.0,2.0,85,0.00,,,-99.99,,2013-06-11 18:42:00,
2013-06-11 14:52:00,62.0,56.0,-100.00,NE,50,1.0,3.0,82,0.00,,,-99.99,,2013-06-11 18:52:00,
2013-06-11 15:02:00,62.0,56.0,-100.00,ENE,60,1.0,3.0,81,0.00,,,-99.99,,2013-06-11 19:02:00,
2013-06-11 15:12:00,61.0,55.0,-100.00,West,270,2.0,6.0,83,0.00,,,-99.99,,2013-06-11 19:12:00,
2013-06-11 15:22:00,61.0,56.0,-100.00,West,270,1.0,6.0,83,0.00,,,-99.99,,2013-06-11 19:22:00,
2013-06-11 15:33:00,62.0,56.0,-100.00,North,10,1.0,2.0,80,0.00,,,-99.99,,2013-06-11 19:33:00,
2013-06-11 15:42:00,62.0,56.0,-100.00,NW,320,1.0,2.0,82,0.00,,,-99.99,,2013-06-11 19:42:00,
2013-06-11 15:52:00,62.0,57.0,-100.00,ENE,75,1.0,6.0,85,0.00,,,-99.99,,2013-06-11 19:52:00,
2013-06-11 16:03:00,61.0,57.0,-100.00,WNW,285,2.0,6.0,85,0.00,,,-99.99,,2013-06-11 20:03:00,
2013-06-11 16:12:00,61.0,57.0,-100.00,NNW,340,1.0,4.0,86,0.00,,,-99.99,,2013-06-11 20:12:00,
2013-06-11 16:22:00,61.0,57.0,-100.00,West,270,1.0,4.0,86,0.00,,,-99.99,,2013-06-11 20:22:00,
2013-06-11 16:32:00,62.0,57.0,-100.00,ESE,105,1.0,2.0,84,0.00,,,-99.99,,2013-06-11 20:32:00,
2013-06-11 16:42:00,62.0,57.0,-100.00,North,350,1.0,2.0,84,0.00,,,-99.99,,2013-06-11 20:42:00,
2013-06-11 16:52:00,62.0,57.0,-100.00,North,355,1.0,4.0,84,0.00,,,-99.99,,2013-06-11 20:52:00,
2013-06-11 17:02:00,61.0,56.0,-100.00,East,90,0.0,2.0,83,0.00,,,-99.99,,2013-06-11 21:02:00,
2013-06-11 17:12:00,61.0,56.0,-100.00,East,95,1.0,3.0,83,0.00,,,-99.99,,2013-06-11 21:12:00,
2013-06-11 17:22:00,62.0,57.0,-100.00,SSE,155,1.0,3.0,84,0.00,,,-99.99,,2013-06-11 21:22:00,
2013-06-11 17:33:00,61.0,56.0,-100.00,East,80,0.0,1.0,84,0.00,,,-99.99,,2013-06-11 21:33:00,
2013-06-11 17:42:00,61.0,57.0,-100.00,SE,135,1.0,3.0,85,0.00,,,-99.99,,2013-06-11 21:42:00,
2013-06-11 17:53:00,61.0,58.0,-100.00,North,0,1.0,4.0,90,0.17,,,-99.99,,2013-06-11 21:53:00,
2013-06-11 18:03:00,61.0,58.0,-100.00,SE,135,1.0,3.0,91,0.08,,,-99.99,,2013-06-11 22:03:00,
2013-06-11 18:12:00,60.0,58.0,-100.00,East,80,0.0,3.0,93,0.21,,,-99.99,,2013-06-11 22:12:00,
2013-06-11 18:22:00,60.0,58.0,-100.00,North,-999,-999.0,-999.0,94,0.31,,,-99.99,,2013-06-11 22:22:00,
2013-06-11 18:33:00,59.0,58.0,-100.00,East,80,0.0,1.0,95,0.27,,,-99.99,,2013-06-11 22:33:00,
2013-06-11 18:42:00,59.0,58.0,-100.00,North,350,1.0,2.0,96,0.14,,,-99.99,,2013-06-11 22:42:00,
2013-06-11 18:52:00,59.0,58.0,-100.00,East,90,0.0,6.0,97,0.20,,,-99.99,,2013-06-11 22:52:00,
2013-06-11 19:02:00,59.0,58.0,-100.00,SW,225,1.0,2.0,97,0.21,,,-99.99,,2013-06-11 23:02:00,
2013-06-11 19:12:00,59.0,58.0,-100.00,North,-999,-999.0,-999.0,98,0.16,,,-99.99,,2013-06-11 23:12:00,
2013-06-11 19:22:00,59.0,58.0,-100.00,SE,145,1.0,2.0,98,0.16,,,-99.99,,2013-06-11 23:22:00,
2013-06-11 19:32:00,59.0,58.0,-100.00,North,-999,-999.0,-999.0,98,0.21,,,-99.99,,2013-06-11 23:32:00,
2013-06-11 19:42:00,59.0,58.0,-100.00,North,350,0.0,1.0,98,0.10,,,-99.99,,2013-06-11 23:42:00,
2013-06-11 19:52:00,59.0,58.0,-100.00,South,190,0.0,2.0,99,0.14,,,-99.99,,2013-06-11 23:52:00,
2013-06-11 20:02:00,58.0,58.0,-100.00,SE,135,1.0,2.0,99,0.21,,,-99.99,,2013-06-12 00:02:00,
2013-06-11 20:12:00,58.0,58.0,-100.00,East,80,0.0,2.0,99,0.75,,,-99.99,,2013-06-12 00:12:00,
2013-06-11 20:22:00,58.0,58.0,-100.00,East,90,0.0,2.0,99,0.14,,,-99.99,,2013-06-12 00:22:00,
2013-06-11 20:42:00,58.0,58.0,-100.00,NNE,30,0.0,1.0,99,0.23,,,-99.99,,2013-06-12 00:42:00,
2013-06-11 20:52:00,58.0,58.0,-100.00,SSW,210,0.0,1.0,99,0.03,,,-99.99,,2013-06-12 00:52:00,
2013-06-11 21:02:00,58.0,58.0,-100.00,East,90,0.0,2.0,99,0.00,,,-99.99,,2013-06-12 01:02:00,
2013-06-11 21:12:00,58.0,58.0,-100.00,WSW,250,0.0,1.0,99,0.06,,,-99.99,,2013-06-12 01:12:00,
2013-06-11 21:22:00,58.0,58.0,-100.00,West,260,1.0,2.0,99,0.00,,,-99.99,,2013-06-12 01:22:00,
2013-06-11 21:32:00,58.0,58.0,-100.00,West,260,0.0,1.0,99,0.00,,,-99.99,,2013-06-12 01:32:00,
2013-06-11 21:42:00,58.0,58.0,-100.00,WNW,285,0.0,1.0,99,0.00,,,-99.99,,2013-06-12 01:42:00,
2013-06-11 21:52:00,58.0,58.0,-100.00,SE,135,1.0,1.0,99,0.00,,,-99.99,,2013-06-12 01:52:00,
2013-06-11 22:02:00,58.0,58.0,-100.00,East,80,0.0,2.0,99,0.00,,,-99.99,,2013-06-12 02:02:00,
2013-06-11 22:12:00,57.0,57.0,-100.00,SE,135,1.0,1.0,99,0.00,,,-99.99,,2013-06-12 02:12:00,
2013-06-11 22:22:00,57.0,57.0,-100.00,SSE,160,1.0,2.0,99,0.00,,,-99.99,,2013-06-12 02:22:00,
2013-06-11 22:32:00,58.0,58.0,-100.00,SE,145,0.0,1.0,99,0.00,,,-99.99,,2013-06-12 02:32:00,
2013-06-11 22:42:00,58.0,58.0,-100.00,North,0,0.0,1.0,99,0.00,,,-99.99,,2013-06-12 02:42:00,
2013-06-11 22:52:00,58.0,58.0,-100.00,SSW,210,0.0,1.0,99,0.03,,,-99.99,,2013-06-12 02:52:00,
2013-06-11 23:02:00,58.0,58.0,-100.00,South,180,0.0,1.0,99,0.01,,,-99.99,,2013-06-12 03:02:00,
2013-06-11 23:12:00,57.0,57.0,-100.00,South,190,0.0,1.0,99,0.00,,,-99.99,,2013-06-12 03:12:00,
2013-06-11 23:22:00,57.0,57.0,-100.00,East,100,0.0,1.0,99,0.00,,,-99.99,,2013-06-12 03:22:00,
2013-06-11 23:33:00,57.0,57.0,-100.00,East,80,0.0,2.0,99,0.01,,,-99.99,,2013-06-12 03:33:00,
2013-06-11 23:43:00,57.0,57.0,-100.00,NW,315,1.0,2.0,99,0.00,,,-99.99,,2013-06-12 03:43:00,
2013-06-11 23:53:00,57.0,57.0,-100.00,West,275,1.0,2.0,99,0.00,,,-99.99,,2013-06-12 03:53:00,